OpenBCM V1.13 (Linux)

Packet Radio Mailbox

DB0FHN

[JN59NK Nuernberg]

 Login: GUEST





  
LU1HVK > KEP      26.09.19 08:34l 250 Lines 12370 Bytes #999 (0) @ WW
BID : 32411_LU1HVK
Read: DF7EAV DJ6UX GUEST
Subj: TLE 26 09
Path: DB0FHN<DB0BLO<DB0ERF<IZ3LSV<I0OJJ<VE2PKT<N3HYM<WH6FQE<N7HPX<LU1HVK
Sent: 190926/0523Z 32411@LU1HVK.2594.CBA.ARG.SA LinBPQ6.0.18

>From lu1hvk%lu1hvk.2594.cba.arg.sa@i0ojj.ampr.org Thu Sep 26 07:25:16 2019
Received: from i0ojj.ampr.org by i0ojj.ampr.org (JNOS2.0k.3b2) with SMTP
	id AA27550 ; Thu, 26 Sep 2019 07:25:16 +0200
Message-Id: <32411_LU1HVK@ve2pkt.bbs>
>From: lu1hvk@lu1hvk.2594.cba.arg.sa
X-JNOS-User-Port: Telnet   (ve2pkt @ 144.172.216.109)  -> Sending message

                         _    _   _ _ _   ___     ___  __
                        | |  | | | / | | | \ \   / / |/ /
                        | |  | | | | | |_| |\ \ / /| ' /
                        | |__| |_| | |  _  | \ V / | . \
                        |_____\___/|_|_| |_|  \_/  |_|\_\

     BBS/NODO - CORDOBA (LEONES-FF87UH) - LU1HVK-4 NODO - LU1HVK-3 APRS

+----------------------------------------------------------------------------+
OSCAR 7
1  7530U 74089B   19268.89813597 -.00000026 +00000-0 +11859-3 0  9995
2  7530 101.7561 235.5824 0012172 153.9579 262.4730 12.53640046052719
OSCAR 11 (UoSAT 2)
1 14781U 84021B   19268.87796812 +.00000047 +00000-0 +11858-4 0  9998
2 14781 097.6068 288.8799 0008471 004.5822 355.5468 14.83107808892466
OSCAR 19 (LUSAT)
1 20442U 90005G   19268.89323410 -.00000023 +00000-0 +78585-5 0  9996
2 20442 098.6553 210.7580 0011042 212.7749 147.2750 14.32933231550527
EYESAT A
1 22825U 93061C   19268.92236317 -.00000005 +00000-0 +15930-4 0  9995
2 22825 098.9114 259.8596 0009456 072.2355 287.9858 14.30066947355869
ITAMSAT
1 22826U 93061D   19268.90090467 +.00000001 +00000-0 +18205-4 0  9991
2 22826 098.9054 259.8166 0009907 062.0564 298.1619 14.30400991356081
RADIO ROSTO
1 23439U 94085A   19268.84937757 -.00000044 +00000-0 -32183-4 0  9994
2 23439 064.8170 315.7761 0145371 093.9524 267.8031 11.27568149019070
JAS 2
1 24278U 96046B   19268.85693733 -.00000008 +00000-0 +29261-4 0  9991
2 24278 098.5526 048.8739 0350033 343.0996 015.8718 13.53093455140965
TECHSAT 1B
1 25397U 98043D   19268.85603101 -.00000017 +00000-0 +11979-4 0  9990
2 25397 098.6945 207.8247 0002354 098.7716 261.3729 14.23671007101767
ISS (ZARYA)
1 25544U 98067A   19268.97576939  .00000347  00000-0  14092-4 0  9995
2 25544  51.6418 221.4194 0007471  85.4554  23.2885 15.50107914190898
PCSAT
1 26931U 01043C   19268.91850875 -.00000012 +00000-0 +27270-4 0  9994
2 26931 067.0497 107.6263 0007434 270.3813 089.6436 14.30553177939095
SAUDISAT 1C
1 27607U 02058C   19268.90386829 -.00000021 +00000-0 +17931-4 0  9997
2 27607 064.5537 106.2661 0076402 237.2730 122.0992 14.75573209901546
CUTE-1
1 27844U 03031E   19268.92237932 +.00000052 +00000-0 +43060-4 0  9999
2 27844 098.6855 275.6564 0010967 102.6259 257.6146 14.22195870842353
CUBESAT XI 4
1 27848U 03031J   19268.59094912  .00000039  00000-0  37730-4 0  9997
2 27848  98.6931 275.8504 0010775 114.0977 246.1329 14.21788776842199
MOZHAYETS 4
1 27939U 03042A   19268.82597656  .00000134  00000-0  32545-4 0  9994
2 27939  98.0543  42.7888 0014159 111.8619 248.4096 14.66804957855073
CUBESAT XI 5
1 28895U 05043F   19268.90658751 +.00000089 +00000-0 +26013-4 0  9994
2 28895 097.9735 048.3175 0017627 042.3044 317.9515 14.63692861741764
CUTE-1.7+APD II
1 32785U 08021C   19268.85135368 +.00000171 +00000-0 +24087-4 0  9995
2 32785 097.5550 263.9138 0011674 297.7722 062.2312 14.88347595618369
DELFI C3
1 32789U 08021G   19268.74929359 +.00001359 +00000-0 +94324-4 0  9998
2 32789 097.4554 315.3850 0013290 141.4174 218.8006 15.07123934621781
SEEDS
1 32791U 08021J   19268.83677240 +.00000258 +00000-0 +31560-4 0  9990
2 32791 097.5312 269.9657 0011781 267.7922 092.1948 14.90873034618803
YUBELEINY
1 32953U 08025A   19268.88114781 +.00000020 +00000-0 +75656-4 0  9996
2 32953 082.4986 083.0745 0018681 273.8325 086.0619 12.43091163514631
PRISM (HITOMI)
1 33493U 09002B   19268.80836839 +.00000988 +00000-0 +91867-4 0  9994
2 33493 098.1207 193.5203 0014166 210.0812 149.9596 14.96737029579963
KKS-1 (KISEKI)
1 33499U 09002H   19268.89019636 +.00000083 +00000-0 +20269-4 0  9991
2 33499 098.3436 110.7351 0007933 248.4806 111.5557 14.75463859573423
SWISSCUBE
1 35932U 09051B   19268.46690990  .00000118  00000-0  37607-4 0  9993
2 35932  98.5975  77.3890 0006918 215.8884 144.1849 14.56311394531154
BEESAT
1 35933U 09051C   19268.46394918 +.00000103 +00000-0 +34301-4 0  9997
2 35933 098.5995 079.1861 0004924 228.4413 131.6362 14.56397177531185
ITUPSAT 1
1 35935U 09051E   19268.71616677 +.00000074 +00000-0 +28217-4 0  9992
2 35935 098.6105 079.6764 0007254 227.4853 132.5731 14.55553380531015
XIWANG-1 (HOPE-1)
1 36122U 09072B   19268.69380170 -.00000046 +00000-0 -10404-4 0  9997
2 36122 100.0769 266.4335 0007808 113.1813 247.0103 13.16351126469903
TISAT 1
1 36799U 10035E   19268.92945240 +.00000333 +00000-0 +39680-4 0  9993
2 36799 098.1686 064.4520 0013455 118.1301 242.1278 14.91160364499359
JUGNU
1 37839U 11058B   19268.84436130  .00000296  00000-0  15998-4 0  9993
2 37839  19.9612  93.4984 0018922 340.2398 119.8744 14.12659079411293
SRMSAT
1 37841U 11058D   19268.05207796 +.00000297 +00000-0 +18011-4 0  9993
2 37841 019.9712 157.1146 0011907 196.6816 296.6848 14.10639405410500
M-CUBED/EXP-1 PRIME
1 37855U 11061F   19268.88952697 +.00000639 +00000-0 +39813-4 0  9993
2 37855 101.7127 215.4070 0173054 142.6397 218.6996 15.05590668431239
HORYU 2
1 38340U 12025D   19268.90768236 +.00000125 +00000-0 +26292-4 0  9998
2 38340 098.3206 310.4310 0011948 162.1925 197.9704 14.75751034385380
STRAND 1
1 39090U 13009E   19268.79142517 +.00000040 +00000-0 +29274-4 0  9998
2 39090 098.4795 113.0483 0009231 002.0329 358.0893 14.35097945344583
SOMP
1 39134U 13015E   19268.75926985 +.00001155 +00000-0 +61519-4 0  9995
2 39134 064.8632 059.4349 0035787 287.7833 071.9391 15.20334208355273
BEESAT 3
1 39135U 13015F   19268.92379329 +.00000665 +00000-0 +42492-4 0  9993
2 39135 064.8678 078.6084 0034276 296.9290 062.8335 15.17609001354913
BEESAT 2
1 39136U 13015G   19268.86675235  .00000639  00000-0  41975-4 0  9998
2 39136  64.8685  82.8985 0025991 302.4521  57.4092 15.17028747355219
CUBEBUG 1
1 39153U 13018D   19268.83858121  .00000145  00000-0  25845-4 0  9994
2 39153  97.9808   6.4198 0015846 234.3890 125.5847 14.80597488346486
ZACUBE
1 39417U 13066B   19268.81191623  .00000190  00000-0  30038-4 0  9995
2 39417  97.5628 276.7439 0060383  69.5933 291.1752 14.81150592315716
TRITON 1
1 39427U 13066M   19268.91191512 +.00000148 +00000-0 +31757-4 0  9996
2 39427 097.6878 240.2178 0113004 207.1855 152.3407 14.67881241312700
GOMX 1
1 39430U 13066Q   19268.77274203  .00000146  00000-0  35962-4 0  9993
2 39430  97.7566 218.8440 0150280 302.3135  56.3590 14.59287654311050
HUMSAT D
1 39433U 13066T   19268.92352055 +.00000372 +00000-0 +41511-4 0  9993
2 39433 097.5445 312.3264 0029885 332.1829 027.7791 14.92253547316699
CUBEBUG 2
1 39440U 13066AA  19268.93980048 +.00000178 +00000-0 +31472-4 0  9990
2 39440 097.6084 261.5465 0081492 121.9652 238.9514 14.75887969313413
FUNCUBE 1
1 39444U 13066AE  19268.82506499  .00000228  00000-0  34232-4 0  9999
2 39444  97.5603 278.7959 0059444  63.1371 297.5903 14.81976793314615
UWE-3
1 39446U 13066AG  19268.90933016 +.00000174 +00000-0 +29493-4 0  9992
2 39446 097.5849 268.6409 0071558 096.1511 264.7859 14.78423078313332
SPROUT
1 39770U 14029E   19268.86000259  .00000464  00000-0  57319-4 0  9991
2 39770  97.8882  11.5344 0009568 116.1323 244.0886 14.87429534289573
UNISAT 6
1 40012U 14033C   19268.85461948  .00000150  00000-0  29545-4 0  9994
2 40012  97.7433 131.1270 0059205 136.8363 223.7510 14.74008951283291
DUCHIFAT 1
1 40021U 14033M   19268.75610968  .00000348  00000-0  41287-4 0  9997
2 40021  97.9233 193.6770 0014373  83.5752 276.7102 14.90686062286309
QB50P1
1 40025U 14033R   19268.75616891 +.00000174 +00000-0 +24461-4 0  9994
2 40025 097.9031 188.2696 0013913 092.8919 267.3891 14.88984966285551
CHUBUSAT 1
1 40300U 14070C   19268.80499804  .00000435  00000-0  21852-4 0  9991
2 40300  97.3183 340.4471 0021325  67.4907  72.1412 15.22175956271098
NUDT-PHONESAT
1 40900U 15049B   19268.86443380 +.00001428 +00000-0 +63547-4 0  9998
2 40900 097.4388 277.2414 0012143 189.8169 290.3461 15.23057090222759
ZDPS 2A
1 40901U 15049C   19268.95802472 +.00000439 +00000-0 +25018-4 0  9992
2 40901 097.4625 273.3596 0012296 212.2422 205.6008 15.17838182222291
ZDPS 2B
1 40902U 15049D   19268.80857816  .00000913  00000-0  48599-4 0  9995
2 40902  97.4575 270.6290 0012281 210.1144 273.9267 15.17693925222243
XW-2A
1 40903U 15049E   19268.87173458  .00001297  00000-0  32246-4 0  9994
2 40903  97.3291 312.1575 0014377 140.5933 305.8226 15.42107748225532
KAITUO 1A
1 40904U 15049F   19268.78629921  .00000448  00000-0  27196-4 0  9991
2 40904  97.4710 269.1161 0013363 220.8330 263.7893 15.15438017222006
OBJECT G
1 40905U 15049G   19268.85685571  .00000518  00000-0  31769-4 0  9992
2 40905  97.4758 266.6335 0014509 215.6229 191.8599 15.14348049221889
XW-2C
1 40906U 15049H   19268.83203767  .00000170  00000-0  12360-4 0  9994
2 40906  97.4716 269.2874 0013492 211.4228 269.8964 15.15754734222015
XW-2D
1 40907U 15049J   19268.79780297  .00000595  00000-0  34423-4 0  9993
2 40907  97.4695 268.9342 0012981 208.2520 276.3772 15.15952594222024
LILACSAT 2
1 40908U 15049K   19268.93547919 +.00000372 +00000-0 +24176-4 0  9999
2 40908 097.4832 267.7897 0014635 216.5042 200.0513 15.13852013221826
XW-2F
1 40910U 15049M   19268.79699279  .00000745  00000-0  40564-4 0  9996
2 40910  97.4659 271.0795 0014014 199.5688 285.0018 15.17426868222045
XW-2B
1 40911U 15049N   19268.88650256  .00000221  00000-0  15025-4 0  9992
2 40911  97.4717 269.6877 0012892 208.9157 196.2116 15.15878027221938
KAITUO 1B
1 40912U 15049P   19268.80867190  .00000792  00000-0  40173-4 0  9997
2 40912  97.4516 274.8884 0014464 180.1540 304.6216 15.19753863222364
